Content
SEND FEEDBACK

Daily
Averages
Monthly
Summary
United States of America

ST. LOUIS, MISSOURI


Home > North America > United States > Missouri
Elevation: 163 meters     Latitude: 38 45N     Longitude: 090 22W

WEATHER
 
SELECT A DAY
Number of Records: 196,649;   Date Range: 1/1/95 - 9/18/14
 
SHARE

PRINT THIS DATA

[ ← Previous Day ]
WEATHER ALMANAC - 20 MARCH, 2013
[ Next Day → ]
[ °F ]   °C
Weather ElementAverageHighLow
Temperature-0.8 °C2.2 °C (4:54 pm)-5 °C (11:54 pm)
Dewpoint-8.7 °C-2.2 °C (3:54 am)-12.2 °C (6:54 pm)
Humidity57.4 %85 % (3:54 am)36 % (4:54 pm)
Barometer1023.7 hPa1026.8 hPa (9:54 am)1021 hPa (11:54 pm)
Wind Speed19.3 km/h31.5 km/h (9:54 am)
Wind Gust44.4 km/h (2:54 pm)
Weather ElementAverage
Visibility16.1 km
Wind DirectionWNW (289.2 °)

Weather ElementTotal
Precipitation---
Heating Degree Days19.7 (Base 18.3)
Averaged from 24 records on 20 March, 2013
WEATHER CONDITIONS BREAKOUT
WIND DIRECTION BREAKOUT
WEATHER BY HOUR - 20 MARCH, 2013
[ °F ]   °C
Local TimeTemperatureDewpointHumidityBarometerVisibilityWind DirectionWind SpeedGust SpeedPrecipitationEventsConditions
1:54 AM-0.6 °C-4.4 °C76 %1022.7 hPa16.1 kmWest (260°)13 km/hClear
2:54 AM0 °C-3.3 °C79 %1022.4 hPa16.1 kmWest (270°)7.4 km/hClear
3:54 AM0 °C-2.2 °C85 %1022.7 hPa16.1 kmWSW (250°)13 km/hClear
4:54 AM0.6 °C-2.2 °C82 %1023 hPa16.1 kmWNW (290°)11.1 km/hClear
5:54 AM-0.6 °C-5 °C72 %1023.4 hPa16.1 kmWNW (300°)13 km/hClear
6:54 AM-1.1 °C-7.2 °C64 %1024 hPa16.1 kmNW (320°)18.5 km/hClear
7:54 AM-1.1 °C-6.7 °C66 %1025.4 hPa16.1 kmNW (310°)22.2 km/h29.6 km/hMostly Cloudy
8:54 AM-1.7 °C-8.3 °C61 %1026.4 hPa16.1 kmNW (320°)27.8 km/h40.7 km/hMostly Cloudy
9:04 AM-2 °C-8 °C64 %1025.7 hPa16.1 kmNW (310°)27.8 km/h37 km/hOvercast
9:54 AM-1.7 °C-9.4 °C56 %1026.8 hPa16.1 kmNW (320°)31.5 km/hOvercast
10:54 AM-1.7 °C-10 °C54 %1026.4 hPa16.1 kmNW (320°)29.6 km/h38.9 km/hOvercast
11:54 AM0 °C-8.9 °C52 %1026.1 hPa16.1 kmNNW (330°)29.6 km/h37 km/hMostly Cloudy
12:54 PM0.6 °C-9.4 °C48 %1025.1 hPa16.1 kmNNW (330°)31.5 km/h38.9 km/hMostly Cloudy
1:54 PM1.1 °C-8.9 °C48 %1024.7 hPa16.1 kmNNW (340°)31.5 km/hMostly Cloudy
2:54 PM1.1 °C-10 °C44 %1023.7 hPa16.1 kmWest (280°)25.9 km/h44.4 km/hMostly Cloudy
3:54 PM1.1 °C-11.7 °C38 %1023.4 hPa16.1 kmNNW (330°)22.2 km/h42.6 km/hPartly Cloudy
4:54 PM2.2 °C-11.7 °C36 %1022.7 hPa16.1 kmNW (320°)24.1 km/h37 km/hScattered Clouds
5:54 PM1.1 °C-11.7 °C38 %1022.4 hPa16.1 kmNW (320°)25.9 km/h40.7 km/hPartly Cloudy
6:54 PM0 °C-12.2 °C40 %1022.4 hPa16.1 kmWNW (290°)20.4 km/hPartly Cloudy
7:54 PM-0.6 °C-12.2 °C42 %1022 hPa16.1 kmWNW (300°)14.8 km/hClear
8:54 PM-1.7 °C-11.7 °C47 %1021.7 hPa16.1 kmWNW (290°)9.3 km/hClear
9:54 PM-3.9 °C-11.1 °C58 %1021.7 hPa16.1 kmWest (270°)7.4 km/hClear
10:54 PM-4.4 °C-10.6 °C62 %1021.3 hPa16.1 kmWest (270°)5.6 km/hClear
11:54 PM-5 °C-10.6 °C65 %1021 hPa16.1 kmCalmClear
Hourly data recorded from KSUS, located 0 kilometers away from St. Louis, Missouri







STORIES FROM OUR PARTNERS